Regional Weather Roundup
Issued by NWS Midland/Odessa, TX

Skip options and go directly to product.
Home | Oldest Version | Previous Version | Current Version | All | Graphics & Text | Save Text | Print | Product List | Glossary On

Skip product version selection by date and time.   
844
ASUS44 KMAF 042210
RWRMAF
MIDLAND AREA WEATHER ROUNDUP
NATIONAL WEATHER SERVICE MIDLAND TX
500 PM CDT SAT JUL 04 2015

...IN SOUTHWEST TEXAS AND SOUTHEAST NEW MEXICO...

CITY           SKY/WX    TMP DP  RH WIND       PRES   REMARKS
ALPINE         PTSUNNY   82  59  44 S8        30.08F
ANDREWS        FAIR      90  60  36 SE9G18    29.98F
ARTESIA        SUNNY     90  55  31 E13       29.98F
BIG SPRING     MOSUNNY   92  59  33 SE12      29.98F
CARLSBAD       MOSUNNY   91  57  31 SE13G22   29.95F
DRYDEN           N/A     90  66  45 E8G21     29.92F
FORT STOCKTON  MOSUNNY   88  64  44 SE13G23   29.96F
GUAD PASS      SUNNY     83  55  38 E21G29    30.11F
HOBBS          MOSUNNY   90  57  33 SE12      30.01F
MARFA          PTSUNNY  N/A N/A N/A E9        30.07F
MIDLAND AIRPK  MOSUNNY   91  61  36 SE14G20   29.97F
MIDLAND INTL   MOSUNNY   89  63  41 SE14      29.96F
ODESSA         MOSUNNY   89  61  38 S12G22    29.98F
PECOS          PTSUNNY   92  60  33 E9G17     29.91F
PRESIDIO       FAIR      91  63  38 MISG      29.91S
SEMINOLE       PTSUNNY   91  57  31 SE13G18   29.99F
SNYDER         MOSUNNY   88  65  45 SE10      29.97F
WINK           MOSUNNY   92  61  35 E13G21    29.93F
$$
...OTHER STATIONS IN TEXAS...

CITY           SKY/WX    TMP DP  RH WIND       PRES   REMARKS
ABILENE        MOSUNNY   92  63  38 S10G25    29.94F
AMARILLO       MOSUNNY   88  59  37 S17       30.00F
AUSTIN         PTSUNNY   89  73  59 S14       29.94F
BROWNSVILLE    MOSUNNY   88  69  53 S14G23    29.93F
CORPUS CHRISTI PTSUNNY   89  75  63 SE21G28   29.95F
DALLAS FTW     MOSUNNY   93  68  43 SW8       29.92S
DEL RIO        MOSUNNY   91  68  46 SE15G28   29.88F
EL PASO        PTSUNNY   93  52  24 E7        29.93F
HOUSTON INT    PTSUNNY   87  76  69 S13       29.98S
LUBBOCK        MOSUNNY   91  59  33 SE14      29.99F
SAN ANGELO     MOSUNNY   90  63  40 SE13      29.95F
SAN ANTONIO    MOSUNNY   91  70  49 S15G23    29.95F
WACO           MOSUNNY   94  69  44 S13       29.93F
WICHITA FALLS  NOT AVBL
$$
...OTHER LOCATIONS IN NEW MEXICO...

CITY           SKY/WX    TMP DP  RH WIND       PRES   REMARKS
ALAMAGORDO     MOSUNNY   91  54  27 SE13G18   29.97F
ALBUQUERQUE    TSTM      80  57  45 SE20G30   30.07R
CANNON AFB     MOSUNNY   87  59  39 S13       30.02F
CLOVIS         MOSUNNY   88  59  37 S14         N/A
HOLLOMAN AFB   MOSUNNY   92  55  27 S13       29.94F
ROSWELL        SUNNY     90  54  29 SE8G20    29.98F
RUIDOSO        CLOUDY    68  54  60 W6        30.23F
SANTA FE       CLOUDY    82  52  35 S6        30.13F
TRUTH OR CONSE PTSUNNY   89  51  27 SE5       30.00F
TUCUMCARI      MOSUNNY   93  50  23 SW13      29.97F
$$

USA.gov is the U.S. government's official web portal to all federal, state and local government web resources and services.